Weather Service Report


507 
ASUS46 KLOX 020412
RWRCA 

SOUTHERN CALIFORNIA WEATHER ROUNDUP
NATIONAL WEATHER SERVICE OXNARD CALIFORNIA
800 PM PST SUN MAR 01 2015

NOTE: "FAIR" INDICATES FEW OR NO CLOUDS BELOW 12,000 FEET WITH NO 
SIGNIFICANT WEATHER AND/OR OBSTRUCTIONS TO VISIBILITY.

  -  STATIONS PRECEEDED BY AN ASTERISK (*) ARE NOT NWS OR FAA 
     STATIONS AND ARE NOT SUBJECT TO NWS AND FAA QUALITY CONTROL.

CAZ041-042-087-020500-
LA AND ORANGE COUNTY COASTAL AREAS

  
CITY           SKY/WX    TMP DP  RH WIND       PRES   REMARKS
L.A. DOWNTOWN  CLOUDY    55  48  77 CALM      29.93R                  
L.A. AIRPORT   CLOUDY    55  46  71 N6        29.94R                  
LONG BEACH     CLOUDY    58  47  66 S9        29.93R                  

CITY           SKY/WX    TMP DP  RH WIND       PRES   REMARKS
AVALON           N/A     55 N/A N/A MISG        N/A                   
FULLERTON      CLOUDY    58  43  57 S6        29.93R                  
*GETTY CENTER    N/A    N/A N/A N/A N8          N/A                   
HAWTHORNE      CLOUDY    58  47  66 SE6       29.94R                  
*LOS ALAMITOS  MOCLDY    56  49  75 SE6       29.93R                  
*REDONDO BEACH   N/A     56  48  76 CALM      29.95R                  
SANTA ANA      LGT RAIN  58  46  64 S7        29.94R                  
STA MONICA APT CLOUDY    51  46  83 NE5       29.94R                  
TORRANCE       MOCLDY    55  50  82 S6        29.94R                  
*UCLA            N/A     50  45  81 N7        29.91S                  

$$

CAZ547-548-048-020500-
LA COUNTY VALLEYS AND INLAND EMPIRE

  
CITY           SKY/WX    TMP DP  RH WIND       PRES   REMARKS
BURBANK        RAIN      50  46  86 N6        29.93S FOG              
VAN NUYS       CLOUDY    50  46  86 NE6       29.94R                  

CITY           SKY/WX    TMP DP  RH WIND       PRES   REMARKS
CORONA AIRPORT MOCLDY    50  44  79 CALM      29.94R                  
*CHATSWORTH      N/A     49  45  87 CALM      29.96S                  
CHINO          MOCLDY    52  43  71 CALM      29.94R                  
*CLAREMONT       N/A     46  42  86 N2          N/A                   
MARCH AFB      MOCLDY    48  44  86 S1        29.92R                  
*NORTHRIDGE      N/A     48  45  87 N2          N/A                   
ONTARIO        MOCLDY    52  42  69 SE5       29.92R                  
*PASADENA        N/A     52  50  93 CALM        N/A                   
RIVERSIDE      MOCLDY    53  43  68 CALM      29.93R                  
SAN BERNARDINO MOCLDY    50  37  62 CALM      29.92S                  
*WHITEMAN AP   NOT AVBL                                               
*WOODLAND HILL   N/A     48  46  93 N1          N/A                   

$$

CAZ054-055-020500-
LA AND SAN BERNARDINO COUNTY MOUNTAINS

  
CITY           SKY/WX    TMP DP  RH WIND       PRES   REMARKS
*ACTON           N/A     42  40  94 SE3         N/A                   
*BIG BEAR AIRP CLOUDY    28  27  93 CALM      29.87F                  
*BIG PINES       N/A     27  25  92 CALM        N/A                   
MT WILSON NWS    N/A     34  34 100 E2          N/A                   
SANDBERG       CLOUDY    39  33  79 CALM      29.91S                  

$$

CAZ028-029-059-060-099-020500-
ANTELOPE VALLEY AND SURROUNDING AREAS

  
CITY           SKY/WX    TMP DP  RH WIND       PRES   REMARKS
LANCASTER      CLOUDY    46  39  76 VRB6      29.92R                  
PALMDALE       CLOUDY    46  41  82 CALM      29.92R                  

CITY           SKY/WX    TMP DP  RH WIND       PRES   REMARKS
29 PALMS       LGT RAIN  46  44  93 SE5       30.02S                  
BARSTOW/DAGGET MOCLDY    48  39  71 E13       29.92S                  
BISHOP         CLOUDY    41  29  62 CALM      29.93S                  
CHINA LAKE     LGT RAIN  44  41  89 NW7       29.94S                  
EDWARDS AFB    CLOUDY    48  37  64 NE3       29.89S                  
MOJAVE         MOCLDY    45  39  81 N16       29.92R                  
NEEDLES        HVY RAIN  52  46  80 N3        29.96F                  
VICTORVILLE    PTCLDY    45  37  76 SE5       29.91R                  

$$

CAZ039-040-020500-
VENTURA AND SANTA BARBARA COUNTY COAST

  
CITY           SKY/WX    TMP DP  RH WIND       PRES   REMARKS
CAMARILLO      RAIN      52  49  89 SW3       29.95R FOG              
OXNARD AIRPORT CLOUDY    53  46  77 NE9       29.94R                  
*POINT MUGU    LGT RAIN  53  49  86 NE9       29.94S                  
SBA APT/GOLETA PTCLDY    53  45  74 CALM      29.93R                  
*SANTA BARBARA   N/A     56  43  62 CALM      30.01S                  
*VENTURA         N/A     50  47  87 CALM      29.99R                  

$$

CAZ044-045-020500-
VENTURA COUNTY VALLEYS

  
CITY           SKY/WX    TMP DP  RH WIND       PRES   REMARKS
*SIMI VALLEY     N/A     49  47  92 CALM      29.94R                  
*OJAI            N/A     47  44  91 CALM      29.92R                  
*FILLMORE        N/A     51  47  86 CALM      29.85R                  

$$

CAZ053-020500-
VENTURA COUNTY MOUNTAINS

  
CITY           SKY/WX    TMP DP  RH WIND       PRES   REMARKS
*LOCKWOOD VLY    N/A     32  32 100 MISG        N/A                   
*ROSE VALLEY     N/A     37  39 100 MISG        N/A                   

$$

CAZ034-035-036-020500-
CENTRAL COAST AND SANTA YNEZ VALLEY

  
CITY           SKY/WX    TMP DP  RH WIND       PRES   REMARKS
SAN LUIS OBISP PTCLDY    46  45  96 CALM      29.95R                  
SANTA MARIA    CLEAR     47  44  90 CALM      29.95R                  

CITY           SKY/WX    TMP DP  RH WIND       PRES   REMARKS
*CAL POLY SLO    N/A     48  45  87 CALM        N/A                   
*LOMPOC        CLEAR     46  39  76 CALM      29.95S                  
*PISMO BEACH     N/A     49  46  90 NE6       29.95S                  
*SANTA YNEZ    FAIR      45  41  87 SE6       29.94R                  

$$

CAZ037-038-051-020500-
SAN LUIS OBISPO COUNTY INTERIOR AND CUYAMA VALLEY

  
CITY           SKY/WX    TMP DP  RH WIND       PRES   REMARKS
*CUYAMA          N/A     44  41  91 CALM      29.94R                  
PASO ROBLES    PTCLDY    49  44  83 S8        29.94R                  

$$

CAZ032-033-061-020500-
SOUTHERN DESERTS

  
CITY           SKY/WX    TMP DP  RH WIND       PRES   REMARKS
BLYTHE         RAIN      52  51  97 N7        29.95S FOG              
IMPERIAL       LGT RAIN  53  51  93 W6        29.96R                  
PALM SPRINGS   LGT RAIN  51  51 100 W3        29.97F                  
THERMAL        LGT RAIN  52  49  89 NW6       29.95S                  

$$

ELSEWHERE ACROSS THE WESTERN UNITED STATES AND MEXICO

  
CITY           SKY/WX    TMP DP  RH WIND       PRES   REMARKS
DENVER, CO     CLOUDY    22  17  81 SE8       30.21F WCI  12          
GRAND CANYON,  FLURRIES  36  34  92 SE8       29.98S WCI  30          
HONOLULU, HI   PTCLDY    79  64  61 NE15G23   29.96R                  
KAHULUI, MAUI  LGT RAIN  73  68  83 NE15      29.98R                  
LAKE TAHOE, CA CLEAR     27  22  81 CALM      29.94R                  
LAS VEGAS, NV  RAIN      47  42  83 S6        29.95R                  
MAMMOTH LAKES, CLOUDY    25  25 100 CALM      29.93S                  
MEXICO CITY, M CLEAR     66  36  32 N9        30.39R                  
PHOENIX, AZ    PTCLDY    70  47  43 W8        29.90R                  
PORTLAND, OR   CLOUDY    50  31  48 VRB3      29.99F                  
RENO, NV       PTCLDY    38  26  62 CALM      29.96S                  
SALT LAKE CITY MOCLDY    40  30  67 CALM      30.00S                  
SAN DIEGO, CA  MOCLDY    55  47  74 SE3       29.96R                  
SAN FRANCISCO, CLEAR     56  51  84 W16       29.94R                  
SAN JOSE, CA   CLEAR     54  44  69 NW8       29.94R                  
SEATTLE, WA    CLOUDY    47  32  56 N5        29.98F                  
TIJUANA, MEX   LGT RAIN  52  45  76 E12       29.95R                  

$$
  
STATION/POSITION TIME  TEMP    WIND        PRES    VSBY  WAVE
                       AIR SEA DIR/SP/G                  HT/PER
                 (UTC) (F)     (DEG/KT/KT) (MB)    (MI)  (FT/S)
POINT ARGUELLO B NOT AVBL
WEST SANTA BARBA 0400   56 60  340/  8/ 10 1013.1R         8/12
POINT CONCEPTION NOT AVBL
EAST SANTA BARBA NOT AVBL
SANTA MONICA BAY 0400   56 62   30/  8/ 10 1013.7R         2/13

Return to Home page


Western Regional Climate Center, wrcc@dri.edu